When you browse on this site, cookies collect data to enhance your experience and personalize the content and advertising you see.
Visit our Privacy Policy to learn more. By continuing to use the site, you agree to this use of cookies and data.
  • Em Portugal
  • Lista de países
  • Para 7 dias
  • Temperatura da água
  • Mapa do tempo
  • Widgets de tempo
  • user-avatar
    Iniciar Sessão

    Previsão horária em Kirovo

    Hoje, 5 Junho, Sexta-feira

    Tempo Temperatura Precipitação Vento Pressão Humidade
    00:00 +8°C° 0 mm 0 m/s 731 mmHg 88%
    01:00 +8°C° 0 mm 0 m/s 731 mmHg 89%
    02:00 +9°C° 0 mm 1 m/s 730 mmHg 90%
    03:00 +8°C° 0 mm 1 m/s 730 mmHg 90%
    04:00 +9°C° 0.2 mm 1 m/s 730 mmHg 91%
    05:00 +9°C° 0.2 mm 1 m/s 729 mmHg 92%
    06:00 +10°C° 0 mm 0 m/s 729 mmHg 85%
    07:00 +12°C° 0 mm 1 m/s 729 mmHg 81%
    08:00 +13°C° 0 mm 1 m/s 728 mmHg 78%
    09:00 +14°C° 0 mm 1 m/s 728 mmHg 75%
    10:00 +15°C° 0.1 mm 1 m/s 727 mmHg 72%
    11:00 +16°C° 0.1 mm 1 m/s 727 mmHg 69%
    12:00 +17°C° 0 mm 2 m/s 726 mmHg 64%
    13:00 +17°C° 0.3 mm 3 m/s 726 mmHg 68%
    14:00 +15°C° 0.3 mm 4 m/s 725 mmHg 72%
    15:00 +15°C° 0.3 mm 5 m/s 725 mmHg 76%
    16:00 +14°C° 0.6 mm 4 m/s 725 mmHg 79%
    17:00 +13°C° 0.6 mm 4 m/s 726 mmHg 82%
    18:00 +11°C° 0 mm 3 m/s 728 mmHg 83%
    19:00 +11°C° 1.2 mm 3 m/s 728 mmHg 86%
    20:00 +10°C° 1.2 mm 3 m/s 729 mmHg 89%
    21:00 +9°C° 1.2 mm 3 m/s 729 mmHg 92%
    22:00 +8°C° 0.1 mm 4 m/s 729 mmHg 91%
    23:00 +8°C° 0.1 mm 4 m/s 729 mmHg 90%

    Amanhã, 6 Junho, Sábado

    Tempo Temperatura Precipitação Vento Pressão Humidade
    00:00 +7°C° 0.1 mm 5 m/s 730 mmHg 89%
    01:00 +7°C° 0.1 mm 5 m/s 730 mmHg 89%
    02:00 +7°C° 0.1 mm 6 m/s 730 mmHg 89%
    03:00 +7°C° 0.1 mm 6 m/s 729 mmHg 89%
    04:00 +7°C° 0.2 mm 6 m/s 730 mmHg 88%
    05:00 +6°C° 0.2 mm 7 m/s 731 mmHg 88%
    06:00 +6°C° 0.2 mm 7 m/s 731 mmHg 87%
    07:00 +6°C° 0.5 mm 7 m/s 732 mmHg 87%
    08:00 +7°C° 0.5 mm 6 m/s 732 mmHg 88%
    09:00 +7°C° 0.5 mm 6 m/s 733 mmHg 89%
    10:00 +7°C° 0.9 mm 6 m/s 733 mmHg 89%
    11:00 +7°C° 0.9 mm 6 m/s 734 mmHg 90%
    12:00 +7°C° 0.9 mm 6 m/s 734 mmHg 90%
    13:00 +7°C° 2.4 mm 6 m/s 734 mmHg 91%
    14:00 +7°C° 2.4 mm 6 m/s 734 mmHg 92%
    15:00 +7°C° 2.4 mm 6 m/s 734 mmHg 93%
    16:00 +7°C° 4.1 mm 6 m/s 735 mmHg 94%
    17:00 +6°C° 4.1 mm 7 m/s 735 mmHg 94%
    18:00 +6°C° 4.1 mm 7 m/s 736 mmHg 94%
    19:00 +6°C° 3 mm 7 m/s 736 mmHg 95%
    20:00 +7°C° 3 mm 6 m/s 736 mmHg 95%
    21:00 +7°C° 3 mm 6 m/s 736 mmHg 95%
    22:00 +7°C° 1.5 mm 6 m/s 737 mmHg 95%
    23:00 +7°C° 1.5 mm 5 m/s 737 mmHg 94%

    Depois de amanhã, 7 Junho, Domingo

    Tempo Temperatura Precipitação Vento Pressão Humidade
    00:00 +7°C° 1.5 mm 5 m/s 737 mmHg 93%
    01:00 +7°C° 0.1 mm 4 m/s 737 mmHg 93%
    02:00 +7°C° 0.1 mm 4 m/s 738 mmHg 93%
    03:00 +7°C° 0.1 mm 4 m/s 738 mmHg 92%
    04:00 +8°C° 0.1 mm 4 m/s 738 mmHg 91%
    05:00 +8°C° 0.1 mm 4 m/s 738 mmHg 90%
    06:00 +10°C° 0.1 mm 4 m/s 738 mmHg 88%
    07:00 +10°C° 0.3 mm 5 m/s 738 mmHg 85%
    08:00 +12°C° 0.3 mm 5 m/s 738 mmHg 82%
    09:00 +13°C° 0.3 mm 6 m/s 738 mmHg 78%
    10:00 +11°C° 0.9 mm 6 m/s 737 mmHg 82%
    11:00 +12°C° 0.9 mm 5 m/s 737 mmHg 86%
    12:00 +10°C° 0.9 mm 5 m/s 737 mmHg 91%
    13:00 +10°C° 0.3 mm 5 m/s 737 mmHg 89%
    14:00 +12°C° 0.3 mm 5 m/s 737 mmHg 87%
    15:00 +12°C° 0.3 mm 5 m/s 737 mmHg 85%
    16:00 +13°C° 0.6 mm 5 m/s 737 mmHg 84%
    17:00 +13°C° 0.6 mm 5 m/s 737 mmHg 83%
    18:00 +13°C° 0.6 mm 5 m/s 737 mmHg 82%
    19:00 +12°C° 0.7 mm 4 m/s 737 mmHg 85%
    20:00 +11°C° 0.7 mm 3 m/s 737 mmHg 88%
    21:00 +10°C° 0.7 mm 3 m/s 737 mmHg 91%
    22:00 +10°C° 0.7 mm 3 m/s 737 mmHg 92%
    23:00 +9°C° 0.7 mm 3 m/s 737 mmHg 93%

    8 Junho, Segunda-feira

    Tempo Temperatura Precipitação Vento Pressão Humidade
    00:00 +9°C° 0.7 mm 3 m/s 737 mmHg 94%
    01:00 +9°C° 0.2 mm 2 m/s 737 mmHg 94%
    02:00 +8°C° 0.2 mm 2 m/s 737 mmHg 94%
    03:00 +7°C° 0.2 mm 2 m/s 737 mmHg 94%
    04:00 +8°C° 0.4 mm 2 m/s 737 mmHg 92%
    05:00 +9°C° 0.4 mm 2 m/s 737 mmHg 90%
    06:00 +10°C° 0.4 mm 2 m/s 738 mmHg 88%
    07:00 +12°C° 0.7 mm 2 m/s 738 mmHg 81%
    08:00 +14°C° 0.7 mm 2 m/s 738 mmHg 74%
    09:00 +15°C° 0.7 mm 2 m/s 737 mmHg 67%
    10:00 +15°C° 0.5 mm 2 m/s 737 mmHg 65%
    11:00 +16°C° 0.5 mm 2 m/s 737 mmHg 62%
    12:00 +16°C° 0.5 mm 2 m/s 737 mmHg 59%
    13:00 +17°C° 0.2 mm 2 m/s 737 mmHg 58%
    14:00 +17°C° 0.2 mm 2 m/s 737 mmHg 56%
    15:00 +17°C° 0.2 mm 2 m/s 737 mmHg 55%
    16:00 +17°C° 0 mm 2 m/s 738 mmHg 59%
    17:00 +17°C° 0 mm 2 m/s 738 mmHg 63%
    18:00 +18°C° 0 mm 1 m/s 738 mmHg 67%
    19:00 +15°C° 0 mm 2 m/s 738 mmHg 69%
    20:00 +12°C° 0 mm 3 m/s 738 mmHg 71%
    21:00 +11°C° 0 mm 3 m/s 738 mmHg 74%
    22:00 +11°C° 0 mm 3 m/s 738 mmHg 73%
    23:00 +10°C° 0 mm 3 m/s 737 mmHg 72%

    9 Junho, Terça-feira

    Tempo Temperatura Precipitação Vento Pressão Humidade
    00:00 +10°C° 0 mm 3 m/s 737 mmHg 72%
    01:00 +10°C° 0.9 mm 4 m/s 737 mmHg 79%
    02:00 +9°C° 0.9 mm 5 m/s 736 mmHg 85%
    03:00 +9°C° 0.9 mm 6 m/s 736 mmHg 92%
    04:00 +9°C° 2.3 mm 5 m/s 735 mmHg 93%
    05:00 +10°C° 2.3 mm 4 m/s 735 mmHg 93%
    06:00 +9°C° 2.3 mm 3 m/s 735 mmHg 93%
    07:00 +10°C° 0.6 mm 4 m/s 735 mmHg 93%
    08:00 +9°C° 0.6 mm 5 m/s 735 mmHg 92%
    09:00 +10°C° 0.6 mm 6 m/s 735 mmHg 91%
    10:00 +10°C° 0.7 mm 5 m/s 735 mmHg 92%
    11:00 +10°C° 0.7 mm 5 m/s 735 mmHg 92%
    12:00 +10°C° 0.7 mm 5 m/s 734 mmHg 92%
    13:00 +13°C° 0.2 mm 6 m/s 734 mmHg 89%
    14:00 +14°C° 0.2 mm 6 m/s 734 mmHg 85%
    15:00 +16°C° 0.2 mm 7 m/s 734 mmHg 82%
    16:00 +16°C° 0.5 mm 7 m/s 734 mmHg 83%
    17:00 +16°C° 0.5 mm 6 m/s 734 mmHg 84%
    18:00 +15°C° 0.5 mm 6 m/s 734 mmHg 86%
    19:00 +15°C° 0.6 mm 5 m/s 734 mmHg 88%
    20:00 +14°C° 0.6 mm 4 m/s 734 mmHg 90%
    21:00 +13°C° 0.6 mm 3 m/s 734 mmHg 93%
    22:00 +13°C° 0.5 mm 3 m/s 733 mmHg 94%
    23:00 +13°C° 0.5 mm 3 m/s 733 mmHg 94%

    10 Junho, Quarta-feira

    Tempo Temperatura Precipitação Vento Pressão Humidade
    00:00 +13°C° 0.5 mm 3 m/s 733 mmHg 95%
    01:00 +14°C° 1.8 mm 2 m/s 733 mmHg 96%
    02:00 +14°C° 1.8 mm 2 m/s 733 mmHg 97%
    03:00 +14°C° 1.8 mm 2 m/s 732 mmHg 98%
    04:00 +14°C° 1.7 mm 2 m/s 732 mmHg 97%
    05:00 +14°C° 1.7 mm 1 m/s 732 mmHg 97%
    06:00 +14°C° 1.7 mm 1 m/s 732 mmHg 96%
    07:00 +13°C° 1.6 mm 2 m/s 732 mmHg 95%
    08:00 +12°C° 1.6 mm 2 m/s 732 mmHg 94%
    09:00 +11°C° 1.6 mm 3 m/s 732 mmHg 93%
    10:00 +11°C° 2 mm 3 m/s 732 mmHg 94%
    11:00 +10°C° 2 mm 2 m/s 732 mmHg 95%
    12:00 +10°C° 2 mm 2 m/s 733 mmHg 96%
    13:00 +13°C° 0.7 mm 2 m/s 733 mmHg 91%
    14:00 +14°C° 0.7 mm 2 m/s 734 mmHg 86%
    15:00 +14°C° 0.7 mm 3 m/s 734 mmHg 80%
    16:00 +14°C° 0 mm 3 m/s 734 mmHg 80%
    17:00 +14°C° 0 mm 3 m/s 735 mmHg 80%
    18:00 +15°C° 0 mm 2 m/s 735 mmHg 81%
    19:00 +14°C° 0 mm 2 m/s 735 mmHg 85%
    20:00 +12°C° 0 mm 2 m/s 735 mmHg 89%
    21:00 +10°C° 0 mm 2 m/s 735 mmHg 93%
    22:00 +10°C° 0 mm 2 m/s 735 mmHg 92%
    23:00 +11°C° 0 mm 1 m/s 735 mmHg 91%
    Mostrar mais